Location: Skanderborg
(56.0313°N, 9.9317°E)
Time: 23:39:46
(UTC+00:00)

Cosmos 2242 Rocket - Pass Details

Date: 15 August 2020
Orbit: 618 x 652 km, 82.5° (Epoch: 23 September)

Event Time Altitude Azimuth Distance (km) Brightness Sun altitude
Rises 19:57:14 0° 347° (NNW) 2,928 8.0 -8.0°
Reaches altitude 10° 19:59:30 10° 348° (NNW) 2,012 7.0 -8.2°
Maximum altitude 20:03:57 89° 77° (ENE) 630 3.6 -8.7°
Drops below altitude 10° 20:08:22 10° 169° (S) 1,984 5.7 -9.2°
Enters shadow 20:09:08 - 169° (S) 2,300 6.0 -9.2°
